Content
SEND FEEDBACK

Daily
Averages
Monthly
Summary
France

LILLE, FRANCE


Home > Europe > France
Elevation: 171 feet     Latitude: 50 34N     Longitude: 003 06E

WEATHER
 
SELECT A DAY
Number of Records: 269,515;   Date Range: 7/1/96 - 8/10/14
 
SHARE

PRINT THIS DATA

[ ← Previous Day ]
WEATHER ALMANAC - FEBRUARY 7, 2013
[ Next Day → ]
[ °C ]   °F
Weather ElementAverageHighLow
Temperature37.2 °F41 °F (1:00 pm)33.8 °F (11:30 pm)
Dewpoint32.3 °F35.6 °F (11:30 am)28.4 °F (7:30 pm)
Humidity82.3 %93 % (1:00 am)66 % (7:00 pm)
Barometer29.96 in30.01 in (11:30 am)29.86 in (12:30 am)
Wind Speed13.3 mph21.9 mph (12:00 pm)
Weather ElementAverage
Visibility7.5 mi
Wind DirectionNW (315.7 °)

Weather ElementTotal
Precipitation---
Heating Degree Days27.6 (Base 65)
Averaged from 51 records on February 7, 2013
WEATHER CONDITIONS BREAKOUT
WIND DIRECTION BREAKOUT
WEATHER BY HOUR - FEBRUARY 7, 2013
[ °C ]   °F
Local TimeTemperatureDewpointHumidityBarometerVisibilityWind DirectionWind SpeedGust SpeedPrecipitationEventsConditions
12:30 AM37.4 °F33.8 °F87 %29.86 in6.2 miNNW (340°)15.0 mphRainLight Rain
1:00 AM36.0 °F33.0 °F87 %29.90 in25.0 miNNW (340°)11.5 mphRainLight Rain
1:00 AM35.6 °F33.8 °F93 %29.89 in6.2 miNNW (340°)12.7 mphMostly Cloudy
1:30 AM37.4 °F33.8 °F87 %29.89 in6.2 miNNW (330°)10.4 mphMostly Cloudy
2:00 AM37.4 °F33.8 °F87 %29.89 in6.2 miNorth (350°)11.5 mphMostly Cloudy
2:30 AM35.6 °F33.8 °F93 %29.89 in6.2 miNNW (340°)17.3 mphRainLight Rain
3:00 AM35.6 °F32.0 °F87 %29.89 in6.2 miNW (320°)10.4 mphPartly Cloudy
3:30 AM37.4 °F33.8 °F87 %29.92 in6.2 miNNW (330°)12.7 mphMostly Cloudy
4:00 AM37.4 °F33.8 °F87 %29.92 in6.2 miNNW (340°)10.4 mphMostly Cloudy
4:30 AM37.4 °F33.8 °F87 %29.92 in6.2 miNW (320°)10.4 mphRainLight Rain Showers
5:00 AM35.6 °F33.8 °F93 %29.92 in6.2 miNW (320°)12.7 mphMostly Cloudy
5:30 AM35.6 °F33.8 °F93 %29.92 in6.2 miNNW (330°)13.8 mphScattered Clouds
6:00 AM35.6 °F33.8 °F93 %29.92 in6.2 miNW (320°)12.7 mphScattered Clouds
6:30 AM35.6 °F33.8 °F93 %29.95 in6.2 miNNW (330°)17.3 mphMostly Cloudy
7:00 AM36.0 °F33.0 °F83 %29.96 in31.0 miNNW (330°)16.1 mphPartly Cloudy
7:00 AM37.4 °F33.8 °F87 %29.95 in6.2 miNNW (330°)16.1 mphMostly Cloudy
7:30 AM35.6 °F32.0 °F87 %29.95 in6.2 miNW (320°)15.0 mphPartly Cloudy
8:00 AM35.6 °F32.0 °F87 %29.95 in6.2 miNW (320°)12.7 mphScattered Clouds
8:30 AM35.6 °F32.0 °F87 %29.95 in6.2 miNW (310°)11.5 mphScattered Clouds
9:00 AM37.4 °F33.8 °F87 %29.98 in6.2 miNW (320°)11.5 mphMostly Cloudy
9:30 AM37.4 °F33.8 °F87 %29.98 in6.2 miNW (310°)15.0 mphMostly Cloudy
10:00 AM37.4 °F33.8 °F87 %29.98 in6.2 miNW (310°)15.0 mphMostly Cloudy
10:30 AM37.4 °F33.8 °F87 %29.98 in6.2 miNW (320°)16.1 mphMostly Cloudy
11:00 AM39.2 °F33.8 °F81 %29.98 in6.2 miNW (320°)16.1 mphMostly Cloudy
11:30 AM39.2 °F35.6 °F87 %30.01 in6.2 miNW (320°)17.3 mphScattered Clouds
12:00 PM37.4 °F33.8 °F87 %30.01 in6.2 miNW (320°)21.9 mphMostly Cloudy
12:30 PM39.2 °F35.6 °F87 %30.01 in6.2 miNW (320°)16.1 mphMostly Cloudy
1:00 PM40.0 °F34.0 °F72 %30.01 in7.0 miNW (310°)17.3 mphRainLight Rain Showers
1:00 PM41.0 °F33.8 °F76 %29.98 in6.2 miNW (310°)17.3 mphMostly Cloudy
1:30 PM39.2 °F33.8 °F81 %29.98 in6.2 miNW (310°)20.7 mphMostly Cloudy
2:00 PM41.0 °F35.6 °F81 %29.98 in6.2 miNW (310°)19.6 mphScattered Clouds
2:30 PM39.2 °F33.8 °F81 %29.98 in6.2 miNW (320°)18.4 mphScattered Clouds
3:00 PM39.2 °F33.8 °F81 %29.98 in6.2 miNW (320°)17.3 mphScattered Clouds
3:30 PM39.2 °F32.0 °F75 %29.98 in6.2 miNNW (330°)15.0 mphScattered Clouds
4:00 PM39.2 °F30.2 °F70 %29.98 in6.2 miNW (320°)15.0 mphScattered Clouds
4:30 PM39.2 °F32.0 °F75 %29.98 in6.2 miNW (320°)15.0 mphScattered Clouds
5:00 PM37.4 °F32.0 °F81 %29.98 in6.2 miWNW (300°)13.8 mphScattered Clouds
5:30 PM37.4 °F30.2 °F75 %29.98 in6.2 miWNW (300°)13.8 mphScattered Clouds
6:00 PM37.4 °F30.2 °F75 %29.98 in6.2 miWNW (300°)10.4 mphScattered Clouds
6:30 PM37.4 °F30.2 °F75 %29.98 in6.2 miWNW (300°)11.5 mphScattered Clouds
7:00 PM37.0 °F30.0 °F66 %29.99 in25.0 miWNW (290°)10.4 mphMostly Cloudy
7:00 PM37.4 °F30.2 °F75 %29.98 in6.2 miWNW (300°)10.4 mphScattered Clouds
7:30 PM37.4 °F28.4 °F70 %29.98 in6.2 miWNW (300°)10.4 mphMostly Cloudy
8:00 PM37.4 °F28.4 °F70 %29.98 in6.2 miWNW (300°)10.4 mphMostly Cloudy
8:30 PM35.6 °F28.4 °F75 %29.98 in6.2 miWNW (300°)9.2 mphMostly Cloudy
9:00 PM35.6 °F30.2 °F81 %29.98 in6.2 miNW (320°)6.9 mphMostly Cloudy
9:30 PM35.6 °F28.4 °F75 %29.98 in6.2 miWest (270°)6.9 mphMostly Cloudy
10:00 PM35.6 °F30.2 °F81 %29.95 in6.2 miWest (280°)6.9 mphMostly Cloudy
10:30 PM35.6 °F28.4 °F75 %29.95 inWNW (290°)6.9 mphClear
11:00 PM35.6 °F28.4 °F75 %29.95 inWNW (300°)8.1 mphClear
11:30 PM33.8 °F28.4 °F81 %29.95 inWNW (300°)6.9 mphClear
Hourly data recorded from LFQQ, located miles away from Lille, France







STORIES FROM OUR PARTNERS